Starlink 30576

operational
NORAD ID: 58065 Int'l Des: 2023-158 Owner: SPXS Country: US Constellation: starlink
LEOCIRCULAR

关于 Starlink 30576

正在加载描述...

实时位置

正在加载3D地球...

即将过境

高度历史

Altitude vs Time

uPlot chart will show altitude changes over time

两行轨道根数

1 58065U 23158Q 25260.01401343 -.00000142 00000-0 45386-5 0 9993
2 58065 43.0025 254.2439 0001230 277.1178 82.9525 15.02536291107405
Epoch: Sep 17, 2025 • Age: 20 hours

当前状态

高度 561.7 km
速度 7.59 km/s
星下点 36.58°N, 80.31°E
发射日期 Oct 13, 2023
运行时间 1.9 years
类型 internet

技术详情

分类 Payload
质量 730.00 kg
干质量 700.00 kg
总质量 730.00 kg
长度 0.30 m
直径 4.10 m
跨度 29.00 m
形状 Box + pan
制造商 SPXS
平台类型 Starlink V2M
阶段状态 In Orbit
所有者/国家 SPXS/US

大型星座

Loading constellations...